Location: Quedlinburg
(51.7921°N, 11.1414°E)
Time: 06:25:04
(UTC+02:00)

METEOR M2 - Pass Details

Date: 21 March 2026
Orbit: 817 x 824 km, 98.5° (Epoch: 17 April)

Event Time Altitude Azimuth Distance (km) Brightness Sun altitude
Rises 05:14:25 0° 13° (NNE) 3,375 ? -10.3°
Reaches altitude 10° 05:16:48 10° 10° (N) 2,437 ? -9.9°
Maximum altitude 05:22:07 64° 291° (WNW) 916 ? -9.1°
Drops below altitude 10° 05:27:25 10° 211° (SSW) 2,419 ? -8.3°
Sets 05:29:46 0° 208° (SSW) 3,347 ? -8.0°
